[[{"header":{"parameterUnit":"m.s-1","parameterCategory":1,"la1":30.2991,"la2":30.254,"lo1":-89.0895,"lo2":-89.0444,"dy":0.0017,"dx":0.0017,"nx":28,"ny":28,"refTime":"2025-03-23T21:00:00:Z","depth":0,"parameterNumber":2,"parameterNumberName":"U-component_of_WINDS"},"data":[0,0,0,0,0,0,0,0,0,0,0,0,0,0,0,0,0,0,0,0,0,0,0,0,0,0,0,0,0,0,0,0,0,0,0,0,0,0,0,0,0,0,0,0,0,0,0,0,0,0,0,0,0,0,0,0,0,0,1.113,1.1131,0,1.1242,1.1244,1.1245,1.1262,1.1261,1.126,1.126,1.1374,1.1378,1.1382,0,0,0,0,0,0,0,0,0,0,0,0,0,1.0929,1.0932,1.113,1.1131,1.1133,1.1242,1.1244,1.1245,1.1263,1.1261,1.126,1.1259,1.1373,1.1377,1.1382,0,0,0,0,0,0,0,0,0,0,0,0,0,1.1026,1.0933,1.113,1.1155,1.1158,1.1242,1.1244,1.1246,1.1263,1.1261,1.126,1.1258,1.1371,1.1377,1.1383,1.145,0,0,1.1401,1.1404,0,0,0,0,0,0,0,0,1.102,1.1033,1.115,1.1153,1.1157,1.1237,1.1215,1.1314,1.1263,1.1223,1.1259,1.1258,1.133,1.1339,1.1363,1.1455,1.146,1.1402,1.1405,1.1408,1.141,0,0,0,0,0,0,0,1.1014,1.1029,1.1174,1.1151,1.1156,1.116,1.1172,1.1234,1.1283,1.1226,1.1228,1.1241,1.1331,1.1357,1.1366,1.1462,1.1402,1.1407,1.1411,1.1413,1.1612,1.1614,0,0,0,0,0,0,1.1003,1.1023,1.1171,1.1178,1.1084,1.1164,1.1178,1.1213,1.1283,1.1292,1.1242,1.1241,1.1348,1.1359,1.137,1.1452,1.1408,1.1413,1.1417,1.161,1.1613,1.1614,0,0,0,0,0,0,1.0998,1.1016,1.1166,1.1101,1.112,1.117,1.1208,1.1216,1.1242,1.1295,1.1303,1.126,1.1347,1.1362,1.1429,1.1456,1.1416,1.1422,1.1608,1.1611,1.1613,1.1616,0,0,0,0,0,0,1.0992,1.1014,1.104,1.1101,1.1124,1.1224,1.121,1.1219,1.1252,1.1252,1.1314,1.1322,1.1347,1.142,1.1435,1.1463,1.1426,1.1606,1.161,1.1613,1.1614,1.1618,1.1622,0,0,0,0,0,1.0985,1.1037,1.1042,1.1059,1.1158,1.1226,1.1238,1.1266,1.1254,1.1281,1.1314,1.132,1.1451,1.1427,1.1444,1.1474,1.1605,1.1609,1.1612,1.1612,1.1617,1.1622,0,0,0,0,0,0,1.0977,1.1045,1.1051,1.1124,1.1169,1.1228,1.1263,1.1272,1.1321,1.1319,1.1351,1.1364,1.143,1.1459,1.1432,1.1542,1.1527,1.1534,1.152,1.1526,1.153,1.1521,1.1431,0,0,0,0,0,1.0984,1.1034,1.1091,1.1149,1.1172,1.1213,1.1244,1.1261,1.1309,1.1328,1.1367,1.1412,1.1464,1.1497,1.1547,1.1618,1.1631,1.1647,1.1652,1.1655,1.166,1.1699,1.1706,1.1627,1.1627,1.1627,0,0,1.0999,1.1042,1.1071,1.1149,1.1186,1.1236,1.1229,1.1283,1.132,1.1336,1.1402,1.1432,1.1485,1.1554,1.1587,1.1581,1.1685,1.166,1.1662,1.1666,1.1704,1.1711,1.1718,1.163,1.1629,1.1629,0,0,1.105,1.1089,1.1141,1.1178,1.1234,1.1261,1.1274,1.1332,1.1352,1.1419,1.1432,1.1476,1.1564,1.1601,1.1631,1.1696,1.1703,1.1712,1.1733,1.177,1.1777,1.1782,1.1804,1.1811,1.1717,1.1717,1.1717,0,1.1061,1.1138,1.1167,1.122,1.1253,1.127,1.1323,1.1357,1.1426,1.1449,1.1441,1.155,1.1588,1.1665,1.168,1.1705,1.1719,1.1704,1.1773,1.1779,1.1785,1.1806,1.1814,1.1718,1.1718,1.1718,1.1718,0,1.1148,1.1201,1.1236,1.1303,1.134,1.1393,1.1429,1.1463,1.1477,1.1505,1.1572,1.1617,1.1676,1.1695,1.171,1.1775,1.1769,1.1767,1.1752,1.1793,1.1813,1.1821,1.1719,1.1719,1.1718,1.1718,0,0,1.1197,1.1279,1.1291,1.1321,1.1383,1.1425,1.1478,1.1535,1.1563,1.161,1.1655,1.1728,1.1726,1.176,1.1779,1.1812,1.1858,1.1806,1.1807,1.1813,1.1931,1.1931,1.194,1.1863,1.1865,1.1867,1.1926,0,1.1255,1.1351,1.1378,1.1458,1.1507,1.1523,1.1569,1.1612,1.1639,1.1684,1.1714,1.1765,1.1759,1.178,1.1813,1.1846,1.1882,1.1842,1.1904,1.1906,1.1889,1.1951,1.1951,1.2005,1.1934,1.1935,1.1936,0,1.1336,1.1384,1.1469,1.1524,1.1546,1.1587,1.1641,1.1684,1.1732,1.175,1.1787,1.1803,1.1858,1.184,1.1916,1.1888,1.1915,1.1934,1.1937,1.1943,1.1923,1.1957,1.2023,1.203,1.1949,1.1948,1.1947,0,1.1362,1.1448,1.151,1.1535,1.1602,1.163,1.1658,1.1705,1.1738,1.1785,1.1806,1.186,1.1888,1.1929,1.1958,1.1943,1.203,1.2015,1.2045,1.2044,1.2062,1.206,1.2132,1.2081,1.2081,1.2081,1.2081,0,1.1423,1.1474,1.1522,1.156,1.1617,1.1648,1.1704,1.1733,1.1775,1.1818,1.1835,1.1875,1.1912,1.1956,1.1979,1.2037,1.2051,1.2065,1.2071,1.2063,1.2061,1.2081,1.2077,1.2083,1.2083,1.2082,1.2082,0,1.1461,1.1496,1.1564,1.1621,1.1637,1.1676,1.1725,1.1761,1.1789,1.1843,1.1858,1.1901,1.1954,1.1987,1.2055,1.2071,1.2134,1.2139,1.2117,1.212,1.2147,1.2143,1.2232,1.2245,1.2187,1.2188,1.2188,0,1.1498,1.1537,1.1599,1.1629,1.1658,1.1707,1.174,1.1771,1.1805,1.1862,1.1892,1.1946,1.1991,1.2075,1.2112,1.2164,1.2169,1.2197,1.2177,1.2168,1.2168,1.2165,1.2168,1.22,1.22,1.2201,1.2201,0,1.1558,1.1573,1.162,1.1673,1.1712,1.1756,1.1799,1.1822,1.1861,1.1898,1.1953,1.1987,1.2056,1.2109,1.2164,1.2193,1.2203,1.2207,1.2216,1.2208,1.2194,1.2201,1.2125,1.2205,1.2204,1.2204,1.2204,1.2204,1.1595,1.1631,1.1679,1.1731,1.1767,1.1807,1.1844,1.1876,1.1922,1.1981,1.1996,1.2053,1.2099,1.2174,1.2204,1.2248,1.2244,1.2258,1.2261,1.2264,1.2263,1.2188,1.2258,1.2258,1.2258,1.2258,1.2258,0,1.1655,1.1687,1.1734,1.1794,1.1835,1.1841,1.1889,1.1922,1.1972,1.2015,1.2059,1.2121,1.2172,1.2213,1.2266,1.2293,1.2299,1.2306,1.2303,1.2309,1.2265,1.2251,1.23,1.23,1.23,1.23,1.23,1.23,1.1691,1.1751,1.1771,1.1848,1.188,1.1936,1.1963,1.1999,1.2033,1.2101,1.2144,1.2171,1.2212,1.2268,1.2315,1.2326,1.2344,1.2349,1.236,1.2317,1.2313,1.2308,1.2295,1.2353,1.2353,1.2402,1.2402,1.2402]},{"header":{"parameterUnit":"m.s-1","parameterCategory":1,"la1":30.2991,"la2":30.254,"lo1":-89.0895,"lo2":-89.0444,"dy":0.0017,"dx":0.0017,"nx":28,"ny":28,"refTime":"2025-03-23T21:00:00:Z","depth":0,"parameterNumber":3,"parameterNumberName":"V-component_of_WINDS"},"data":[0,0,0,0,0,0,0,0,0,0,0,0,0,0,0,0,0,0,0,0,0,0,0,0,0,0,0,0,0,0,0,0,0,0,0,0,0,0,0,0,0,0,0,0,0,0,0,0,0,0,0,0,0,0,0,0,0,0,2.5007,2.5006,0,2.4964,2.4964,2.4963,2.4949,2.495,2.495,2.495,2.4902,2.4901,2.4899,0,0,0,0,0,0,0,0,0,0,0,0,0,2.507,2.5069,2.5007,2.5006,2.5006,2.4965,2.4964,2.4963,2.4949,2.495,2.495,2.495,2.4902,2.4901,2.4899,0,0,0,0,0,0,0,0,0,0,0,0,0,2.5037,2.5069,2.5007,2.4994,2.4992,2.4965,2.4964,2.4963,2.4949,2.495,2.495,2.495,2.4903,2.4901,2.4899,2.4879,0,0,2.4892,2.4891,0,0,0,0,0,0,0,0,2.5039,2.5034,2.4996,2.4995,2.4993,2.4963,2.4969,2.4935,2.4949,2.4966,2.495,2.495,2.4922,2.4918,2.4909,2.4877,2.4875,2.4892,2.4891,2.489,2.4889,0,0,0,0,0,0,0,2.5041,2.5036,2.499,2.4996,2.4994,2.4988,2.4984,2.4962,2.4942,2.4964,2.4963,2.4958,2.4921,2.4911,2.4908,2.4874,2.4892,2.489,2.4889,2.4888,2.4822,2.4821,0,0,0,0,0,0,2.5046,2.5038,2.4991,2.4989,2.5017,2.4987,2.4982,2.4972,2.4943,2.4938,2.4958,2.4958,2.4915,2.491,2.4906,2.488,2.489,2.4888,2.4886,2.4822,2.4822,2.4821,0,0,0,0,0,0,2.5048,2.5042,2.4993,2.5013,2.5007,2.4986,2.4974,2.4971,2.4962,2.4938,2.4934,2.4953,2.4915,2.4909,2.4886,2.4878,2.4887,2.4885,2.4823,2.4822,2.4821,2.4829,0,0,0,0,0,0,2.505,2.5043,2.5037,2.5013,2.5006,2.4975,2.4974,2.497,2.4958,2.4958,2.4932,2.4928,2.4915,2.4889,2.4884,2.4876,2.4883,2.4823,2.4822,2.4822,2.483,2.4829,2.4828,0,0,0,0,0,2.5052,2.504,2.5037,2.5031,2.4998,2.4975,2.497,2.4957,2.4958,2.4951,2.4935,2.4929,2.488,2.4887,2.4881,2.4872,2.4824,2.4823,2.4822,2.483,2.4829,2.4828,0,0,0,0,0,0,2.5063,2.5037,2.5033,2.5013,2.4997,2.4973,2.4963,2.4957,2.4938,2.4938,2.4921,2.4915,2.4893,2.488,2.4888,2.485,2.4851,2.4849,2.486,2.4859,2.4858,2.4861,2.4881,0,0,0,0,0,2.5063,2.5048,2.5026,2.5011,2.5003,2.4984,2.4974,2.4965,2.4946,2.4939,2.4922,2.4902,2.4882,2.487,2.4851,2.4827,2.482,2.4818,2.4817,2.4817,2.4815,2.4799,2.4798,2.4818,2.4818,2.4818,0,0,2.5063,2.5047,2.5039,2.5012,2.4999,2.4982,2.4979,2.4961,2.4948,2.4936,2.4913,2.4899,2.4876,2.4853,2.4841,2.4841,2.4808,2.4816,2.4816,2.4814,2.4798,2.4796,2.4795,2.4817,2.4817,2.4817,0,0,2.5054,2.5042,2.5027,2.5013,2.4992,2.498,2.4976,2.4953,2.4944,2.4921,2.491,2.4893,2.486,2.4844,2.4831,2.4814,2.4807,2.4808,2.4805,2.479,2.4788,2.4787,2.4779,2.4777,2.4806,2.4806,2.4806,0,2.5057,2.5033,2.502,2.5003,2.4991,2.498,2.4963,2.495,2.4923,2.4914,2.4914,2.4871,2.4855,2.4827,2.4822,2.4813,2.4806,2.4811,2.479,2.4788,2.4787,2.4779,2.4777,2.4806,2.4806,2.4806,2.4806,0,2.5036,2.502,2.501,2.4985,2.4972,2.4956,2.4938,2.4926,2.4917,2.4904,2.4879,2.4859,2.4835,2.4827,2.4819,2.4796,2.4797,2.4794,2.4795,2.4785,2.4778,2.4775,2.4807,2.4807,2.4807,2.4807,0,0,2.5034,2.5002,2.4999,2.4987,2.4962,2.4947,2.4929,2.4906,2.4895,2.4876,2.4859,2.4831,2.4827,2.4813,2.4802,2.4789,2.4775,2.4787,2.4786,2.4785,2.4747,2.4749,2.4746,2.477,2.4769,2.4769,2.4748,0,2.5022,2.4991,2.4978,2.4952,2.4935,2.4923,2.4907,2.4889,2.4875,2.4857,2.4842,2.4821,2.4819,2.481,2.4797,2.478,2.4767,2.4781,2.4752,2.4751,2.4757,2.4742,2.4745,2.4727,2.4746,2.4745,2.4745,0,2.5004,2.4986,2.4959,2.4935,2.4927,2.4913,2.489,2.4874,2.4852,2.4842,2.4826,2.4815,2.4793,2.4795,2.4763,2.4773,2.4759,2.4749,2.4747,2.4744,2.4747,2.4737,2.4721,2.4718,2.474,2.4741,2.4741,0,2.5005,2.4973,2.4953,2.4943,2.4914,2.4904,2.4891,2.4869,2.4856,2.4835,2.4825,2.4802,2.4788,2.4769,2.4751,2.4755,2.472,2.4721,2.471,2.471,2.4703,2.4704,2.4684,2.4696,2.4696,2.4696,2.4696,0,2.4992,2.4976,2.4952,2.494,2.492,2.4903,2.4884,2.4869,2.485,2.4832,2.482,2.4803,2.4781,2.4761,2.4746,2.4721,2.4715,2.4705,2.4702,2.4706,2.4707,2.4697,2.4698,2.4695,2.4695,2.4696,2.4696,0,2.4989,2.4973,2.495,2.4924,2.4917,2.4903,2.488,2.4866,2.4852,2.4829,2.4823,2.48,2.4775,2.4755,2.4723,2.4713,2.4686,2.4682,2.4694,2.4692,2.4681,2.4682,2.4653,2.4648,2.4665,2.4665,2.4665,0,2.4983,2.497,2.4943,2.4931,2.4918,2.4899,2.4885,2.4868,2.4853,2.4826,2.4814,2.4789,2.4768,2.4728,2.4707,2.4681,2.4676,2.4668,2.4672,2.4677,2.4675,2.4675,2.4673,2.4667,2.4667,2.4667,2.4667,0,2.4972,2.4964,2.4945,2.4923,2.4907,2.4889,2.487,2.486,2.4838,2.4822,2.4797,2.4781,2.4748,2.4722,2.4694,2.4678,2.4668,2.4666,2.4662,2.4666,2.4673,2.4668,2.4692,2.4667,2.4667,2.4667,2.4667,2.4667,2.4966,2.4953,2.4932,2.4911,2.4895,2.4877,2.4862,2.4845,2.4825,2.4797,2.4787,2.4761,2.4737,2.4698,2.4682,2.4659,2.4659,2.4653,2.4651,2.465,2.465,2.4677,2.4654,2.4654,2.4654,2.4654,2.4654,0,2.4954,2.4939,2.492,2.4894,2.4876,2.487,2.4848,2.4833,2.4811,2.479,2.4769,2.4739,2.4713,2.469,2.4662,2.4648,2.4643,2.4642,2.4642,2.4638,2.4653,2.4659,2.4646,2.4646,2.4646,2.4646,2.4646,2.4646,2.4945,2.4923,2.4912,2.4881,2.4865,2.4841,2.4829,2.4811,2.4794,2.4762,2.4741,2.4726,2.4702,2.4672,2.4647,2.4641,2.4631,2.463,2.4622,2.4636,2.4637,2.4638,2.4644,2.4628,2.4628,2.4609,2.4609,2.4609]}]]